GFSGL_2pvu_pres_198.txt.gz
Presure
182 182 183 175 184 189 177 179 187 182 174 185 183 196 189 159 174 187 187 181 180 187 186 188 193 194 187 191 203 197 196 206 217 217 218 213 212 185 207 207 194 193 200
183 183 185 184 179 175 176 190 169 151 128 132 176 177 187 182 184 184 175 184 168 187 192 195 199 188 200 183 208 225 189 232 196 211 205 206 204 197 182 199 179 195 190
178 187 144 185 181 174 200 190 188 167 187 185 181 183 183 182 181 184 187 189 194 196 188 172 206 202 226 236 230 228 191 205 202 190 211 206 194 199 186 201 177 196 191
192 162 193 185 189 194 190 180 176 171 176 178 176 182 180 184 182 189 199 196 213 182 208 228 244 218 235 222 195 213 190 212 213 200 207 185 189 203 189 200 189 211 196
181 187 174 175 177 170 171 174 176 177 179 177 181 183 156 164 189 197 212 195 201 214 219 234 227 214 214 178 211 211 206 202 205 179 185 199 199 213 196 225 238 191 235
187 192 164 176 164 173 173 191 198 191 185 192 191 180 189 204 188 190 197 248 224 224 206 207 183 199 200 188 170 191 187 201 175 216 224 215 197 203 239 255 261 257 263
201 208 209 223 223 213 211 215 206 201 202 188 180 187 187 212 256 234 217 217 217 214 174 193 216 217 197 197 182 208 179 180 212 214 230 228 239 244 266 270 252 271 270
220 217 208 200 201 199 197 204 194 173 198 224 225 231 232 217 211 215 208 205 178 202 208 207 213 209 206 202 194 182 231 214 204 236 266 267 282 295 292 290 361 461 434
194 200 191 190 196 191 257 230 238 231 218 213 213 218 218 211 217 219 174 211 222 216 176 196 198 209 177 229 241 222 224 263 274 271 291 303 278 306 430 454 442 462 469
246 240 237 224 218 215 213 212 214 223 218 215 202 199 184 205 195 185 216 219 200 191 214 212 187 227 205 204 205 205 279 269 272 310 326 340 414 423 433 425 431 434 437
210 205 202 204 210 209 210 211 217 194 176 187 202 206 215 210 206 200 203 213 202 196 210 178 202 208 205 269 273 253 297 327 328 352 374 406 411 405 408 407 423 448 451
200 178 174 192 175 194 198 203 199 200 225 205 196 211 209 207 209 197 205 239 245 238 203 253 271 275 277 277 297 325 346 340 404 409 405 405 409 420 426 437 436 436 486
203 207 201 199 202 213 215 213 213 210 203 212 204 193 194 193 194 198 191 193 210 212 274 278 281 295 332 276 342 404 423 407 397 409 415 416 413 413 426 434 422 408 412
195 203 193 210 190 211 195 191 202 215 215 215 217 235 196 196 184 193 207 275 275 282 295 324 353 349 367 441 425 410 399 395 414 414 409 408 404 407 416 417 399 394 449
185 203 210 191 200 186 216 204 202 207 214 223 226 244 249 212 269 281 289 295 291 337 361 418 451 439 435 416 402 393 392 406 399 395 399 399 395 400 409 407 388 378 428
201 193 204 183 218 206 219 213 213 213 210 232 215 250 278 289 301 349 290 369 475 480 471 454 439 426 410 399 393 392 405 380 380 384 388 381 392 393 401 398 382 372 411
210 223 194 185 191 224 234 228 234 194 241 262 274 285 325 374 442 576 571 467 458 445 430 423 436 420 407 401 401 408 369 375 376 379 375 378 390 391 394 393 377 371 368
226 228 235 203 238 236 233 238 260 265 281 287 325 399 573 570 565 559 553 546 538 469 428 415 407 442 428 412 369 371 372 371 372 369 366 381 387 384 382 392 383 361 357
242 224 225 230 242 253 264 259 280 287 307 373 507 492 532 510 492 518 541 533 527 503 426 413 403 390 377 368 366 372 367 368 369 365 373 386 382 380 383 382 388 384 353
227 248 253 257 265 261 255 284 294 321 426 410 412 487 593 573 485 461 455 443 425 410 400 392 381 377 374 377 380 374 373 375 371 373 384 386 386 388 386 389 390 383 392
242 251 259 260 256 273 289 316 327 426 399 372 352 358 527 571 574 474 451 434 424 413 406 397 392 392 396 387 384 384 380 378 383 400 393 388 384 392 399 397 395 396 397
257 257 203 254 278 295 309 348 419 385 360 343 333 334 338 338 488 496 464 454 445 434 427 416 411 403 399 395 393 394 400 399 392 382 379 382 395 401 407 408 407 406 406
261 273 273 283 310 305 378 410 383 357 337 332 330 324 323 373 340 353 341 391 461 471 451 459 453 432 426 419 413 410 407 397 395 385 388 406 410 411 407 407 403 403 407
267 278 280 308 302 428 407 381 356 334 329 322 320 366 364 359 353 348 347 347 349 348 345 397 420 427 417 415 414 405 399 405 390 393 427 429 422 412 406 404 405 408 410
283 278 313 300 430 404 382 358 332 320 321 360 356 351 345 343 340 343 339 333 331 326 340 338 366 389 404 396 418 438 423 400 389 404 431 431 421 409 402 399 397 401 409
287 303 319 424 399 379 358 332 316 320 363 361 358 345 334 332 332 329 328 328 330 334 331 356 334 375 390 396 400 397 424 396 386 390 398 396 397 394 394 396 397 403 412

GFSGL_2pvu_pres_201.txt.gz
Presure
198 172 167 167 169 181 178 212 172 179 177 178 189 186 176 172 170 182 129 176 130 183 188 176 182 186 184 180 194 203 193 212 200 190 204 251 236 226 226 202 198 216 206
212 181 176 179 200 199 183 177 183 191 178 188 181 170 188 176 178 176 193 191 182 185 188 185 184 184 163 195 192 198 183 199 201 240 239 226 226 214 200 209 201 207 173
182 180 186 187 175 179 183 181 172 170 175 184 169 178 191 185 196 185 187 188 189 182 183 185 193 201 191 193 193 199 220 255 225 218 181 215 213 204 209 214 197 183 202
198 192 187 187 184 175 172 178 182 182 184 192 188 190 188 176 189 178 184 180 182 188 200 210 202 209 192 220 242 261 232 219 206 216 218 196 208 181 190 199 195 215 201
216 202 191 191 183 183 189 186 182 181 178 187 168 171 188 184 184 186 190 207 191 215 229 223 212 236 242 244 239 215 217 213 202 216 191 182 206 208 202 191 214 205 204
193 197 192 184 191 196 183 197 201 180 180 186 182 166 155 189 197 217 224 225 207 208 260 271 233 188 216 217 215 222 208 213 193 198 226 231 180 222 206 185 226 234 216
202 203 200 196 183 168 190 193 188 189 165 160 177 190 209 217 225 217 201 201 263 239 225 217 215 216 204 193 206 199 195 199 207 215 196 201 261 257 219 248 264 241 241
214 210 207 180 201 202 180 163 189 206 215 218 220 220 214 209 197 232 243 218 220 222 217 216 205 196 200 213 199 210 224 244 221 222 204 218 224 258 252 298 297 300 301
230 231 230 230 222 220 214 213 213 221 200 195 200 196 262 235 225 216 210 208 205 211 187 218 223 219 188 207 217 206 190 191 199 211 222 266 292 287 300 305 331 438 452
207 205 203 202 200 199 199 200 206 195 245 232 226 224 210 212 210 204 191 205 212 194 207 205 226 226 206 222 189 214 220 233 229 228 240 298 299 334 443 434 433 423 420
264 269 263 261 258 233 229 221 223 217 206 205 207 209 212 198 196 194 193 227 211 214 202 211 212 206 241 246 274 278 282 290 296 310 376 410 439 424 412 403 404 415 428
213 213 212 211 212 208 207 201 199 201 208 195 192 186 187 193 201 202 195 216 228 203 202 181 239 227 266 287 288 304 263 419 457 447 444 426 410 400 396 401 415 417 425
192 192 191 192 192 193 192 192 192 181 188 190 199 224 184 190 196 206 203 201 198 203 229 266 284 294 312 470 472 466 461 456 446 429 418 404 391 385 410 410 406 414 416
205 204 195 199 192 194 197 200 189 198 227 211 191 198 232 244 235 236 243 181 262 281 312 330 460 539 508 483 465 448 440 434 427 410 398 387 389 415 394 382 399 396 417
206 197 193 187 202 202 214 211 210 210 205 213 219 221 208 194 199 244 277 291 308 327 305 421 521 549 523 491 458 426 412 420 408 399 392 394 409 379 375 383 383 401 407
206 208 208 204 199 195 204 219 206 214 227 231 216 201 249 208 267 290 310 319 424 414 384 514 568 553 528 500 473 425 406 411 408 403 404 415 366 370 372 379 375 399 399
192 202 198 182 221 214 214 216 200 235 248 250 258 273 242 282 293 315 322 426 389 369 358 491 552 541 527 507 444 414 404 398 402 377 368 366 367 365 371 369 374 394 390
198 199 214 206 225 219 232 229 233 248 262 291 285 268 288 302 316 441 413 382 354 348 353 368 459 446 433 421 411 401 391 380 373 367 367 370 367 370 372 368 388 391 391
221 227 226 227 213 235 239 238 253 262 288 276 281 284 304 313 429 413 385 347 340 370 389 368 463 446 431 418 408 397 389 382 381 382 378 371 371 367 368 377 386 388 392
230 230 237 242 238 241 251 251 261 288 285 279 284 306 334 426 403 383 340 333 377 378 374 374 365 378 444 432 420 411 397 394 390 382 381 380 380 381 390 389 387 386 391
228 232 240 242 236 252 249 261 291 287 292 300 303 347 418 401 390 338 332 330 369 364 361 353 346 338 353 394 504 435 425 412 404 398 397 406 404 398 383 379 379 392 398
237 243 244 245 249 250 263 222 295 289 306 297 353 411 396 387 335 346 371 360 347 339 337 338 336 335 337 353 388 435 429 425 419 417 413 408 397 392 383 386 396 407 408
244 246 247 247 253 248 284 299 285 306 290 392 408 391 381 336 317 357 358 353 343 341 340 334 333 333 340 360 344 393 410 419 429 414 404 410 395 389 404 414 414 413 409
249 249 249 260 264 289 299 282 304 285 395 404 389 376 349 316 347 338 333 325 325 325 330 335 327 340 348 363 347 380 395 400 421 412 435 395 390 418 430 431 420 412 409
248 251 263 285 291 296 295 300 298 417 399 384 368 342 317 351 343 343 328 322 350 352 349 329 337 347 351 354 344 386 396 401 399 443 411 393 392 407 425 420 413 407 403
258 276 292 295 288 303 283 337 415 396 380 362 333 314 358 351 345 343 319 390 351 351 355 362 357 352 349 347 345 394 409 398 399 432 394 392 390 396 402 399 394 396 398

GFSGL_2pvu_pres_207.txt.gz
Presure
166 178 167 178 170 177 175 192 183 200 178 188 200 159 183 175 179 147 180 176 172 174 182 184 179 187 193 184 191 186 186 187 162 167 170 186 198 202 211 221 241 198 249
189 166 175 175 167 188 167 176 192 173 185 177 191 189 174 176 187 172 181 180 176 191 189 181 198 180 185 183 190 191 152 190 189 190 199 204 208 211 230 236 252 241 224
170 174 177 167 173 198 168 191 177 191 183 181 182 193 185 200 187 184 175 180 179 180 179 184 183 192 191 186 145 202 208 182 201 210 207 211 242 233 225 239 231 228 210
168 165 165 169 179 196 178 184 181 178 171 177 183 169 193 173 179 170 176 188 178 162 182 187 187 175 152 215 199 193 201 205 213 214 243 250 250 236 239 217 214 204 218
173 175 178 188 193 191 170 189 201 166 176 174 176 186 178 183 177 184 191 185 176 182 192 170 166 212 193 193 202 203 208 221 244 245 250 237 234 232 240 218 209 222 212
185 165 185 188 178 173 190 198 173 152 164 176 187 167 179 175 198 178 182 186 185 190 153 191 211 191 205 206 206 216 232 238 234 236 224 235 216 192 208 213 203 242 236
183 182 172 199 178 179 163 168 197 182 177 177 167 184 184 177 183 181 181 160 172 190 194 195 203 206 215 215 221 220 249 234 227 237 234 230 230 226 219 227 226 217 271
181 176 180 181 181 181 190 190 184 179 183 182 180 179 177 174 177 185 182 192 188 192 209 185 195 218 222 257 243 190 228 220 214 229 228 219 223 228 239 254 307 345 454
191 187 187 185 183 177 180 185 174 171 171 183 173 185 185 189 189 191 190 194 203 211 215 224 245 253 252 222 231 223 229 220 203 228 213 215 230 279 366 367 359 418 397
185 234 177 172 173 184 175 171 182 187 193 191 184 217 196 191 188 192 188 211 212 251 220 241 243 219 227 219 229 211 224 220 214 207 224 285 356 445 447 515 509 376 374
217 197 208 198 189 190 191 192 195 196 214 200 198 184 192 196 204 205 212 209 226 240 234 219 223 222 230 210 215 222 217 220 218 254 322 384 429 434 475 439 392 481 468
248 250 233 213 206 223 224 224 232 226 216 214 238 229 232 246 217 234 248 242 227 225 219 220 208 208 223 225 236 209 217 241 295 350 412 426 415 411 451 439 477 463 448
271 279 283 283 291 293 292 289 285 280 274 271 250 246 246 242 237 230 224 218 222 213 206 211 214 195 216 205 212 259 289 242 338 432 415 403 357 389 408 486 465 445 421
226 229 235 237 239 240 240 239 239 236 235 232 228 225 221 217 217 216 209 205 205 206 212 210 194 204 215 238 276 280 339 347 421 408 392 364 371 370 365 370 425 416 410
214 215 215 216 215 216 216 216 216 216 216 215 214 211 207 202 200 204 213 195 207 215 218 218 251 247 240 280 305 333 373 409 398 393 357 367 364 362 359 398 417 408 398
195 199 198 197 204 202 200 203 203 198 203 201 201 204 204 205 204 202 205 215 217 191 255 251 266 278 280 335 327 419 409 388 364 337 354 352 359 357 357 364 422 410 397
202 206 208 205 204 204 203 202 204 204 204 210 213 214 232 233 207 238 228 240 262 256 271 279 276 304 332 320 422 407 391 369 323 356 346 367 349 350 383 457 426 408 402
211 212 208 204 206 205 206 215 214 207 208 217 223 219 238 247 254 256 260 257 266 278 277 280 319 326 311 420 403 390 366 325 365 354 339 369 365 346 378 486 457 432 409
213 212 213 217 211 209 220 226 218 213 231 238 230 227 243 243 251 255 276 273 276 275 288 323 317 307 413 400 379 334 372 362 358 338 363 366 366 361 366 435 453 453 445
241 240 233 192 205 220 231 237 241 230 225 226 240 245 240 249 257 271 276 278 281 310 319 310 353 410 392 359 323 373 361 353 337 360 355 367 361 360 358 412 424 429 417
234 236 234 235 232 231 232 231 228 205 238 245 244 247 258 265 272 279 277 280 317 309 302 422 407 388 378 336 365 352 349 337 355 362 365 364 360 359 349 382 411 411 438
229 230 232 233 233 233 233 236 240 252 257 250 252 259 274 274 281 281 297 312 301 306 418 400 380 353 366 356 367 388 373 365 369 365 361 358 351 351 345 385 408 409 459
235 236 236 237 239 240 240 241 250 257 259 262 268 280 273 279 283 309 303 295 344 410 386 374 336 363 375 380 374 368 364 362 361 363 360 364 355 350 348 408 405 434 413
237 239 235 238 242 243 251 255 258 273 281 284 284 272 285 294 304 293 289 408 407 376 364 326 357 377 369 367 362 355 353 354 358 362 373 364 360 347 412 424 422 419 394
241 244 243 250 254 260 267 284 287 288 286 287 287 291 301 296 288 286 410 399 375 362 317 354 374 367 364 354 345 342 348 351 356 372 389 366 350 443 428 410 428 397 386
245 250 252 267 293 299 296 290 291 293 295 293 291 289 289 283 316 394 396 372 355 351 354 370 368 360 350 341 339 343 356 355 370 416 356 363 440 432 426 431 406 388 392

GFSGL_2pvu_pres_210.txt.gz
Presure
159 165 160 175 179 178 181 167 193 189 166 181 187 159 173 193 184 204 191 184 189 194 166 195 173 214 192 195 173 183 180 198 185 195 189 193 157 184 199 207 219 217 227
189 168 178 171 190 164 168 192 193 173 168 174 179 173 185 189 206 174 168 181 179 197 181 190 201 179 180 192 189 180 191 204 184 209 188 201 193 184 208 212 223 231 233
199 177 187 177 173 197 170 168 188 183 182 187 170 185 167 199 194 194 180 200 178 178 187 189 186 180 187 183 195 190 179 176 194 186 169 194 194 210 221 226 245 248 222
181 179 169 174 188 164 192 177 174 182 200 172 175 182 182 173 173 198 188 200 189 185 177 169 170 177 181 193 177 182 189 188 178 199 186 196 208 217 226 265 239 234 255
164 172 175 191 166 170 180 170 184 201 181 186 164 164 163 179 180 186 172 175 169 182 171 162 187 191 178 192 179 190 186 188 186 204 224 184 210 225 262 216 259 226 227
178 178 175 173 180 192 160 187 152 182 177 180 179 192 185 179 173 161 197 191 160 187 184 185 189 180 184 177 188 180 190 171 190 193 176 192 216 256 262 240 239 211 193
176 192 185 177 179 177 179 174 172 173 163 197 180 165 174 175 179 185 170 171 172 180 164 179 181 169 186 193 186 193 198 205 185 196 226 262 233 220 240 235 198 229 212
197 195 189 178 176 177 182 186 180 181 179 170 167 195 159 166 176 176 182 176 167 177 185 171 170 176 183 179 186 209 212 194 215 261 262 231 244 224 229 225 223 236 242
184 185 186 200 187 195 187 180 184 175 183 196 178 190 178 173 173 174 161 179 184 192 159 191 177 170 183 194 185 191 267 267 227 249 245 250 224 227 220 236 239 249 445
195 195 185 184 184 190 191 191 194 186 191 193 181 184 180 181 181 182 159 171 175 179 174 187 191 201 185 210 214 225 235 262 240 232 214 228 217 224 231 240 275 439 424
190 191 191 187 187 183 178 197 176 183 172 177 169 179 176 180 174 174 171 181 186 186 193 189 184 199 246 250 243 246 250 234 231 231 228 211 233 225 247 355 415 415 401
194 194 190 189 191 192 176 178 165 172 173 172 179 180 173 171 181 183 193 181 201 192 198 201 248 212 235 249 242 240 232 217 210 223 229 228 239 291 352 419 398 378 374
202 202 196 202 195 187 193 183 182 187 187 187 181 186 181 188 192 192 204 207 212 204 204 228 241 241 243 236 217 217 222 222 228 220 240 311 329 348 421 399 377 373 365
254 212 261 213 198 197 196 193 192 192 194 194 192 185 201 204 214 217 215 265 254 244 250 242 240 231 216 218 216 228 247 231 270 308 312 345 340 411 395 382 344 378 361
232 239 242 242 250 238 218 220 229 230 228 228 226 246 258 257 254 248 243 242 237 234 226 215 217 216 223 236 228 241 264 291 309 314 335 391 409 394 387 344 377 360 371
215 222 227 229 230 233 237 239 240 242 241 242 242 241 240 238 235 231 228 219 212 220 218 215 217 240 234 230 256 279 296 310 319 327 417 400 399 390 327 371 356 365 375
202 197 201 212 216 220 223 225 225 226 227 227 226 224 220 216 211 212 216 216 203 227 241 237 236 228 264 253 290 297 306 329 319 410 392 387 379 369 363 355 363 364 372
211 210 211 211 207 207 206 209 210 210 211 212 216 218 210 216 215 219 215 234 235 239 231 227 268 263 278 300 299 310 328 314 398 389 381 369 389 419 401 367 384 371 368
217 216 214 213 214 215 217 205 203 211 222 224 222 222 210 220 236 221 236 241 239 245 253 259 283 297 302 298 319 306 307 391 384 408 360 397 388 379 377 373 369 366 361
218 234 235 235 226 216 217 219 212 208 237 245 243 247 244 240 231 238 242 249 248 256 265 297 301 302 308 317 312 364 386 380 398 390 382 378 375 372 367 366 364 367 361
233 230 230 204 219 225 237 235 235 240 242 241 232 232 232 239 247 249 248 253 264 299 299 297 306 308 315 301 400 383 369 366 383 376 366 359 355 353 362 367 367 366 368
230 228 231 232 232 228 216 218 225 228 228 229 236 243 246 248 250 252 257 280 295 285 302 305 312 287 300 397 379 367 318 379 374 362 352 348 352 354 360 375 383 369 352
238 243 242 243 245 244 244 244 244 245 244 243 246 248 250 251 259 263 307 277 304 305 309 302 291 349 391 376 370 313 379 369 359 349 344 354 361 361 379 415 370 358 403
237 243 244 243 242 239 246 249 248 249 248 249 250 252 259 262 279 277 300 306 303 301 295 295 405 387 374 369 366 384 371 358 345 340 353 353 355 414 405 359 376 436 441
242 242 243 243 246 246 244 244 247 250 252 256 265 264 271 287 281 308 297 298 299 294 299 407 384 376 370 363 381 371 357 343 336 347 357 359 420 375 375 455 440 430 439
260 268 265 257 252 231 256 260 263 271 272 279 290 278 275 305 297 290 294 296 299 359 398 380 375 371 357 378 373 358 344 329 340 357 359 417 379 450 452 456 440 439 415

GFSGL_2pvu_pres_213.txt.gz
Presure
200 188 113 178 186 167 171 176 192 177 183 188 174 188 187 187 169 170 184 203 157 176 190 204 192 178 197 186 192 186 210 187 176 180 188 196 195 188 191 190 184 183 190
208 180 179 166 176 175 171 184 160 184 172 159 186 165 185 145 182 175 191 186 173 142 143 169 184 200 196 187 180 184 187 194 188 198 210 174 180 171 195 182 196 179 203
174 203 181 177 164 165 188 181 192 179 178 183 191 174 171 183 182 194 184 178 190 196 172 186 193 172 174 176 184 174 192 174 187 192 203 190 180 189 192 199 191 205 215
178 173 181 177 181 200 178 182 175 173 178 190 169 186 194 194 178 183 197 175 192 183 192 184 181 181 177 177 185 190 175 191 184 175 188 170 191 191 200 194 197 213 246
189 185 179 175 183 178 179 183 176 175 178 170 176 176 182 162 189 195 193 204 195 177 194 176 179 189 193 188 174 189 182 175 183 183 180 189 183 201 209 195 204 216 252
189 179 176 169 172 176 173 173 175 167 175 182 178 179 183 196 202 171 197 170 179 184 194 184 187 184 187 181 193 170 193 174 186 186 190 190 192 201 206 216 233 213 254
193 186 188 188 187 170 177 180 175 175 178 187 182 192 194 175 184 185 181 178 189 174 192 195 184 179 191 165 167 181 173 188 178 191 193 189 197 224 237 212 254 236 246
186 196 185 187 188 188 178 178 187 174 188 182 173 174 166 182 187 186 167 183 182 197 178 186 176 174 191 178 185 191 184 192 187 189 191 197 198 213 265 257 245 244 221
201 191 175 170 181 182 183 194 197 199 172 192 184 191 183 194 188 181 187 207 190 177 185 163 189 167 188 184 195 180 192 180 171 195 203 192 223 246 255 244 214 241 221
199 205 192 219 188 214 212 190 204 212 199 190 193 183 177 191 182 193 193 180 173 199 182 192 181 177 187 200 196 186 192 191 194 201 185 253 255 252 233 212 231 240 233
216 216 203 200 199 213 201 184 197 191 183 187 191 183 200 188 157 187 184 187 179 176 184 186 178 197 194 192 184 196 193 200 193 233 233 225 234 218 238 226 231 254 263
208 215 209 203 202 211 199 201 187 194 188 189 189 189 181 192 187 179 189 182 190 189 194 186 200 190 192 200 192 195 194 216 244 192 241 213 234 212 214 236 261 256 346
294 218 213 215 194 221 197 199 199 198 200 196 193 199 185 182 210 184 192 201 194 194 180 185 187 181 194 198 185 266 237 242 234 204 234 226 232 235 265 257 341 339 411
161 269 208 227 206 207 204 202 197 192 196 201 193 191 196 207 190 189 193 172 193 203 192 191 202 191 161 195 215 199 242 228 229 227 234 227 256 261 338 343 328 408 397
240 247 255 226 262 211 223 199 197 197 200 186 203 189 193 178 179 189 188 204 203 208 228 196 197 154 196 245 240 223 226 223 233 226 231 262 326 336 336 321 419 443 430
226 231 239 240 242 254 250 235 204 204 199 200 204 205 200 193 194 199 195 197 222 213 219 196 167 249 232 215 222 226 225 224 252 261 282 334 338 329 314 411 407 399 391
205 219 224 226 232 239 245 241 238 240 239 241 245 205 202 202 202 205 206 244 248 246 242 233 220 224 212 227 217 252 249 258 277 326 307 336 327 313 394 396 389 381 374
213 213 207 205 215 218 227 229 233 235 235 236 239 240 240 240 239 239 236 227 210 220 220 223 214 229 259 250 245 255 269 279 331 301 332 321 329 382 394 385 373 363 359
222 216 215 219 218 216 215 212 209 206 204 209 206 208 214 217 218 217 216 218 221 222 212 235 254 245 242 257 266 272 288 319 318 327 314 371 383 388 385 373 360 354 362
213 216 225 219 214 213 216 218 216 211 170 217 220 223 224 222 225 223 220 239 247 246 243 239 248 255 264 269 285 306 295 326 318 314 395 384 387 383 371 359 350 359 362
248 246 217 222 217 215 217 228 228 219 206 209 227 237 245 246 244 243 244 240 239 248 264 266 263 265 286 290 315 288 318 301 322 395 383 383 386 371 360 347 353 362 367
257 257 248 241 238 236 237 237 238 236 234 238 241 238 239 238 238 241 250 260 261 259 257 256 281 290 312 289 315 296 311 407 391 382 378 390 372 361 345 346 362 368 427
250 249 252 252 246 240 236 235 233 232 233 237 243 245 249 254 257 258 257 257 254 263 276 298 313 293 297 309 283 306 399 388 380 374 355 374 361 346 340 357 370 429 385
243 241 243 222 252 252 256 257 256 255 256 256 251 252 254 253 260 267 270 277 279 294 314 286 306 310 293 289 374 392 379 382 354 375 377 360 346 337 354 375 431 398 457
252 249 247 252 252 250 252 254 252 251 252 252 255 258 267 285 284 283 298 302 297 318 313 305 304 283 301 405 385 373 378 320 371 377 361 348 336 354 374 467 470 456 462
268 268 273 273 255 254 266 268 263 261 258 264 286 285 285 307 304 290 294 319 312 303 301 284 298 378 397 383 371 366 305 368 378 363 349 336 365 371 487 483 463 455 458

GFSGL_2pvu_pres_219.txt.gz
Presure
200 212 191 191 180 195 201 181 203 195 195 193 164 204 172 191 168 163 151 178 160 185 173 179 185 158 154 167 164 182 192 146 190 171 196 173 170 182 202 200 173 166 173
208 189 203 189 188 182 179 210 182 179 185 170 184 199 171 179 170 167 187 168 153 182 171 169 149 174 156 186 179 146 193 190 160 185 181 198 183 158 217 173 204 217 170
195 191 186 188 203 193 187 202 175 187 188 198 180 182 170 178 183 187 194 174 185 154 187 137 123 192 191 185 164 183 187 190 190 186 178 171 198 182 189 185 194 187 183
192 206 199 183 181 198 192 185 186 192 185 187 198 183 179 176 175 178 175 179 173 177 179 180 196 195 200 180 189 173 175 193 180 194 181 181 194 181 207 179 186 177 182
201 205 193 190 188 186 182 177 181 198 183 174 168 189 183 188 175 180 159 176 193 204 169 171 190 193 181 181 182 182 200 173 195 187 191 190 202 189 184 191 183 193 205
201 198 194 196 189 185 184 182 183 177 180 182 172 180 170 188 189 186 205 186 181 190 185 181 187 179 203 195 180 167 193 169 184 195 191 181 177 176 199 200 206 188 207
206 202 202 195 187 187 188 181 185 180 184 186 179 170 170 187 181 186 164 172 158 178 194 182 181 200 187 184 180 172 204 187 191 167 188 200 193 189 195 195 203 188 204
233 218 211 203 198 192 186 187 184 183 182 195 177 177 179 172 179 166 172 173 180 184 173 177 182 195 196 189 183 191 183 185 181 191 185 190 189 203 192 198 205 202 207
331 312 234 216 211 198 190 191 180 181 184 176 178 185 176 178 178 170 164 182 182 190 184 181 196 170 194 202 175 173 174 181 199 185 197 191 188 199 205 202 203 187 230
304 300 300 371 225 206 197 186 171 187 183 176 180 183 178 176 171 174 171 161 176 173 189 186 172 190 185 166 175 185 188 182 197 191 206 183 204 204 200 199 208 223 229
284 269 284 286 345 221 203 195 193 188 183 190 191 180 176 183 171 194 162 168 179 172 187 187 184 168 183 180 187 190 192 195 204 195 192 198 204 200 193 222 209 196 243
197 265 152 272 285 297 222 204 197 195 189 191 159 151 183 170 185 190 185 193 190 177 184 182 171 181 200 189 187 192 208 192 204 190 197 206 200 179 212 250 250 258 215
236 130 254 255 253 260 152 153 205 199 195 195 194 190 185 185 183 186 180 177 205 180 172 177 202 187 202 178 193 195 206 189 201 201 211 208 187 275 242 203 242 240 232
216 243 271 253 255 267 260 264 257 180 202 148 150 150 198 198 189 192 193 188 186 176 194 193 194 191 206 213 202 195 208 197 206 231 203 226 199 191 206 231 191 225 209
215 225 257 259 252 259 142 249 253 248 212 171 132 187 146 204 196 203 185 203 203 182 196 200 194 195 187 198 201 213 217 216 235 228 216 214 199 215 203 206 211 227 259
213 214 224 260 252 250 254 259 263 258 256 230 150 209 203 199 208 197 200 200 200 193 197 196 205 218 214 208 213 213 184 174 233 222 235 225 235 183 169 227 234 264 274
214 218 215 222 257 260 261 248 251 259 259 263 257 247 205 204 202 205 192 205 205 205 205 207 219 190 216 191 249 191 172 214 172 244 246 226 225 229 241 262 272 272 354
223 215 219 203 213 223 235 257 252 265 257 255 262 253 254 258 248 220 204 202 204 198 203 213 215 221 250 217 220 256 260 248 216 223 226 238 250 262 277 279 349 349 337
224 224 217 219 220 214 219 223 225 235 243 250 255 258 263 261 256 254 254 251 261 260 258 251 239 248 254 253 245 218 217 226 231 243 256 266 273 282 291 337 340 326 322
235 224 221 216 221 221 218 215 218 219 219 223 229 234 239 242 244 246 247 246 245 244 242 241 239 224 216 211 214 230 240 253 261 268 274 277 308 307 340 332 319 311 384
236 237 226 216 216 216 216 213 217 209 202 203 209 213 214 215 214 213 211 214 212 203 210 216 216 228 237 247 260 265 267 254 258 280 315 315 307 333 321 310 310 395 388
236 236 237 235 227 224 216 213 214 213 213 214 216 217 221 220 219 220 218 217 223 243 240 236 232 176 248 256 259 225 266 282 308 311 311 329 321 312 307 402 389 383 391
243 240 239 237 238 239 233 227 225 223 223 225 225 226 227 227 228 230 231 233 230 226 230 240 251 258 263 193 252 285 305 304 337 335 321 312 302 360 404 390 376 398 399
247 246 206 241 242 240 241 243 241 240 241 243 244 240 238 238 238 240 246 242 243 252 257 264 269 179 259 298 306 300 337 337 321 308 295 292 363 402 389 376 404 398 373
259 249 241 243 242 245 247 248 247 247 247 247 249 250 251 251 248 254 253 252 264 267 262 198 283 315 298 321 332 334 315 304 293 290 326 402 382 377 376 314 396 363 349
265 262 259 258 258 255 251 244 245 248 250 254 257 262 259 252 218 261 268 259 284 295 312 308 308 326 335 328 310 298 287 289 383 403 380 383 379 357 410 388 357 348 367